This demonstration page uses our WeatherBlox Daily Observations layout. Learn more.

Left ArrowRight Arrow

38.20091, -84.87328

Hourly Observations for May 29, 2020

Temp ( °F °C ) Dew Point ( °F °C ) Humidity (%) Winds ( mph kmh ) Pressure ( in mb ) Visibility ( mi km ) Precip ( " mm )
12:53 am 00:53 Mostly Cloudy with Light Rain 69 20.6 61 16.1 76 76 SW 18 30 29.95 1014 10 16 0.00 0.00
1:53 am 01:53 Mostly Cloudy 65 18.3 61 16.1 87 87 S 6 9 29.93 1014 10 16 0.01 0.25
2:53 am 02:53 Clear 64 17.8 61 16.1 90 90 SSW 6 9 29.93 1014 10 16 0.00 0.00
3:53 am 03:53 Mostly Cloudy 65 18.3 61 16.1 87 87 S 6 9 29.92 1013 10 16 0.00 0.00
4:53 am 04:53 Mostly Cloudy 64 17.8 61 16.1 90 90 S 7 11 29.93 1014 10 16 0.00 0.00
5:53 am 05:53 Partly Cloudy 65 18.3 62 16.7 90 90 SSW 7 11 29.93 1014 10 16 0.00 0.00
6:53 am 06:53 Sunny 65 18.3 62 16.7 90 90 SSW 7 11 29.96 1015 10 16 0.00 0.00
7:53 am 07:53 Sunny 66 18.9 62 16.7 87 87 SW 5 7 29.98 1015 10 16 0.00 0.00
8:53 am 08:53 Cloudy 67 19.4 63 17.2 87 87 SSW 5 7 29.98 1015 10 16 0.00 0.00
9:53 am 09:53 Mostly Cloudy 69 20.6 62 16.7 78 78 SW 14 22 29.98 1015 10 16 0.00 0.00
10:05 am 10:05 Mostly Cloudy 71 21.7 63 17.2 76 76 SW 12 19 29.98 1015 10 16 0.00 0.00
10:23 am 10:23 Partly Cloudy 71 21.7 63 17.2 76 76 SW 10 17 29.97 1015 10 16 0.00 0.00
10:53 am 10:53 Mostly Sunny 71 21.7 62 16.7 73 73 SW 10 17 29.98 1015 10 16 0.00 0.00
11:53 am 11:53 Partly Cloudy 75 23.9 63 17.2 66 66 SSW 12 19 29.97 1015 10 16 0.00 0.00
12:53 pm 12:53 Partly Cloudy 77 25 64 17.8 64 64 SW 12 19 29.95 1014 10 16 0.00 0.00
1:53 pm 13:53 Mostly Cloudy 77 25 62 16.7 60 60 SSW 14 22 29.93 1014 10 16 0.00 0.00
2:53 pm 14:53 Partly Cloudy 78 25.6 62 16.7 58 58 SW 14 22 29.92 1013 10 16 0.00 0.00
3:53 pm 15:53 Partly Cloudy 79 26.1 62 16.7 56 56 W 12 19 29.92 1013 10 16 0.00 0.00
4:53 pm 16:53 Partly Cloudy 80 26.7 61 16.1 52 52 W 12 19 29.91 1013 10 16 0.00 0.00
5:53 pm 17:53 Cloudy with Light Rain 69 20.6 65 18.3 87 87 VRB 7 11 29.96 1015 3 4 0.02 0.51
6:10 pm 18:10 Cloudy with Light Rain 69 20.6 65 18.3 87 87 W 7 11 29.96 1015 7 11 0.02 0.51
6:53 pm 18:53 Cloudy 68 20 64 17.8 87 87 WSW 6 9 29.97 1015 10 16 0.02 0.51
7:53 pm 19:53 Cloudy 69 20.6 65 18.3 87 87 W 5 7 29.99 1016 10 16 0.00 0.00
8:53 pm 20:53 Cloudy 68 20 63 17.2 84 84 W 3 6 30.01 1016 10 16 0.00 0.00
9:53 pm 21:53 Mostly Cloudy 65 18.3 62 16.7 90 90 Calm 30.02 1017 10 16 0.00 0.00
10:53 pm 22:53 Clear 63 17.2 60 15.6 90 90 Calm 30.04 1017 10 16 0.00 0.00
11:53 pm 23:53 Clear 62 16.7 59 15 90 90 Calm 30.03 1017 10 16 0.00 0.00

Powered by AerisWeather